Location: Beaver Brook Station
(42.3793°N, 71.2203°W)
Time: 07:00:00
(UTC+00:00)

Atlas Centaur 2 - Pass Details

Date: 29 October 2020
Orbit: 459 x 1309 km, 30.4° (Epoch: 23 November)

Event Time Altitude Azimuth Distance (km) Brightness Sun altitude
Rises 22:19:47 0° 239° (WSW) 4,009 7.3 -7.7°
Reaches altitude 10° 22:22:48 10° 231° (SW) 3,144 6.3 -8.2°
Maximum altitude 22:29:48 33° 171° (S) 2,011 4.2 -9.5°
Drops below altitude 10° 22:37:10 10° 111° (ESE) 3,314 4.7 -10.8°
Enters shadow 22:37:43 - 109° (ESE) 3,468 4.8 -10.9°
